Weather observations for the past three days for
Rockport Aransas County Airport
Imperial (Metric)
Date Time (cdt) Wind (mph) Vis. (mi.) Weather Sky Cond. Temperature (ºF) Relative Humidity Wind Chill (°F) Heat Index (°F) Pressure Precipitation (in)
Air Dwpt 6 hour altimeter (in) sea level (mb) 1 hr 3 hr 6 hr
Max. Min.
22 09:53 E 12 8.00 Fair CLR 88 75.9 68% 99 30.02 1016.6
22 08:53 E 13 8.00 Fair CLR 86 75.9 72% 96 30.03 1016.9
22 07:53 E 12 7.00 Fair CLR 84 75 74% 92 30.02 1016.5
22 06:53 E 9 7.00 Fair CLR 82.9 75.9 82.9 82 79% 91 30.02 1016.6
22 05:53 E 12 8.00 Fair CLR 82 75.9 82% 89 30 1016.1
22 04:53 E 10 8.00 Fair CLR 82 75.9 82% 89 30 1016.1
22 03:53 E 12 8.00 Fair CLR 82.9 75.9 79% 91 30 1016.1
22 02:53 E 12 8.00 Fair CLR 82.9 75.9 79% 91 30.01 1016.4
22 01:53 E 13 8.00 Fair CLR 82.9 77 82% 92 30.02 1016.5
22 00:53 E 12 8.00 A Few Clouds FEW021 82.9 77 87.1 82.9 82% 92 30.02 1016.5
21 23:53 E 14 9.00 Fair CLR 82.9 77 82% 92 30.03 1016.9
21 22:53 E 13 G 24 9.00 Fair CLR 84 75 74% 92 30.03 1017.1
21 21:53 E 16 9.00 A Few Clouds FEW020 84 77 80% 94 30.02 1016.6
21 20:53 E 12 9.00 A Few Clouds FEW020 84 75.9 77% 93 30.01 1016.3
21 19:53 E 15 8.00 A Few Clouds FEW021 FEW028 84.9 75.9 75% 94 30 1016.1
21 18:53 E 14 8.00 A Few Clouds FEW025 87.1 75 91.9 87.1 67% 97 29.99 1015.8
21 17:53 E 16 8.00 A Few Clouds FEW022 FEW046 89.1 77 68% 102 29.99 1015.7
21 16:53 E 15 8.00 A Few Clouds FEW025 90 75 62% 100 30 1015.9
21 15:53 E 15 8.00 Fair CLR 91 75 59% 102 30.02 1016.6
21 14:53 E 15 8.00 Fair CLR 91 77 64% 105 30.03 1017.1
21 13:53 E 17 8.00 Fair CLR 91 75.9 61% 103 30.05 1017.6
21 12:53 E 16 8.00 Fair CLR 90 77 91 82.9 66% 103 30.06 1017.9
21 11:53 E 16 8.00 A Few Clouds FEW055 91 77 64% 105 30.07 1018.3
21 10:53 E 13 8.00 A Few Clouds FEW026 FEW034 89.1 75.9 65% 100 30.07 1018.3
21 09:53 E 15 8.00 A Few Clouds FEW024 88 75.9 68% 99 30.06 1018.1
21 08:53 E 14 7.00 Fair CLR 86 75.9 72% 96 30.05 1017.6
21 07:53 E 13 7.00 Fair CLR 84 75.9 77% 93 30.02 1016.6
21 06:53 E 15 6.00 Fair with Haze CLR 82.9 77 84 81 82% 92 30.02 1016.5
21 05:53 E 15 7.00 A Few Clouds FEW026 82.9 77 82% 92 30.01 1016.4
21 04:53 E 13 7.00 A Few Clouds FEW020 82.9 77 82% 92 30 1016.0
21 03:53 E 16 7.00 A Few Clouds FEW020 FEW024 FEW030 82.9 77 82% 92 30 1016.1
21 02:53 E 17 7.00 Partly Cloudy SCT030 SCT042 82.9 77 82% 92 30.01 1016.3
21 01:53 E 14 7.00 Partly Cloudy FEW021 SCT120 82.9 78.1 85% 93 30.03 1016.9
21 00:53 E 13 G 23 8.00 Fair CLR 82.9 77 86 82 82% 92 30.03 1017.1
20 23:53 E 18 8.00 A Few Clouds FEW018 82.9 77 82% 92 30.03 1017.1
20 22:53 E 17 G 28 8.00 A Few Clouds FEW025 84 77 80% 94 30.03 1017.1
20 21:53 E 20 G 29 8.00 Partly Cloudy FEW021 SCT027 84 77 80% 94 30.01 1016.3
20 20:53 E 22 G 31 7.00 Mostly Cloudy and Breezy SCT021 BKN025 84 77 80% 94 29.99 1015.7
20 19:53 E 21 G 31 6.00 Mostly Cloudy with Haze and Breezy BKN020 84.9 78.1 80% 97 29.98 1015.3
20 18:53 E 23 G 31 7.00 Mostly Cloudy and Breezy BKN020 86 78.1 90 81 77% 98 29.96 1014.6 0.02
20 17:53 E 23 G 35 7.00 Partly Cloudy and Breezy FEW021 SCT027 87.1 78.1 75% 100 29.96 1014.5
20 16:53 E 24 G 35 7.00 Partly Cloudy and Breezy FEW022 SCT026 SCT036 89.1 79 72% 105 29.96 1014.5
20 15:53 E 21 G 33 6.00 Partly Cloudy with Haze and Breezy FEW021 SCT025 SCT035 89.1 79 72% 105 29.96 1014.8 0.02
20 14:53 E 23 G 37 6.00 Partly Cloudy with Haze and Breezy SCT024 SCT039 88 79 75% 103 29.97 1015.0
20 13:53 E 26 G 46 2.00 Heavy Rain and Windy SCT022 BKN040 BKN048 82 77 85% 90 29.98 1015.2 0.02
20 12:53 E 22 G 35 7.00 Mostly Cloudy and Breezy SCT022 BKN027 90 79 90 82 70% 106 29.97 1014.9
20 11:53 E 23 G 33 7.00 Mostly Cloudy and Breezy BKN022 BKN028 89.1 78.1 70% 103 29.97 1014.9
20 10:53 E 22 G 32 6.00 Partly Cloudy with Haze and Breezy FEW025 SCT055 88 79 75% 103 29.95 1014.5
20 09:53 E 24 G 32 6.00 Partly Cloudy with Haze and Breezy SCT024 87.1 78.1 75% 100 29.93 1013.8
20 08:53 E 20 G 30 6.00 Partly Cloudy with Haze FEW023 SCT028 84.9 79 82% 98 29.92 1013.4
20 07:53 E 21 G 31 6.00 Mostly Cloudy with Haze and Breezy SCT022 BKN028 BKN035 84 78.1 82% 95 29.91 1012.9
20 06:53 E 21 G 28 5.00 Fog/Mist and Breezy CLR 82 78.1 82.9 80.1 88% 91 29.88 1011.8
20 05:53 E 17 7.00 Mostly Cloudy FEW028 SCT085 BKN110 81 77 88% 88 29.86 1011.3
20 04:53 E 22 G 32 7.00 Mostly Cloudy and Breezy BKN023 82.9 78.1 85% 93 29.85 1010.8
20 03:53 E 22 G 30 6.00 A Few Clouds with Haze and Breezy FEW024 82.9 78.1 85% 93 29.85 1011.0
20 02:53 E 21 G 33 6.00 Partly Cloudy with Haze and Breezy FEW025 FEW033 SCT050 82.9 78.1 85% 93 29.85 1010.9
20 01:53 E 24 G 39 7.00 Mostly Cloudy and Breezy FEW025 SCT029 BKN045 82.9 78.1 85% 93 29.86 1011.2
20 00:53 E 26 G 43 7.00 Mostly Cloudy and Windy SCT022 BKN029 BKN040 82.9 78.1 82.9 79 85% 93 29.85 1011.0 0.37
19 23:53 E 24 G 36 7.00 Overcast and Breezy SCT025 BKN034 OVC041 82.9 78.1 85% 93 29.86 1011.3
19 22:53 E 21 G 36 6.00 Overcast with Haze and Breezy BKN025 BKN035 OVC100 82.9 78.1 85% 93 29.85 1011.0
19 21:53 E 29 G 45 7.00 Overcast and Windy SCT025 BKN035 OVC049 82.9 78.1 85% 93 29.82 1010.0 0.01 0.37
19 20:53 E 16 G 25 1.50 Heavy Rain Fog/Mist FEW007 BKN014 OVC024 79 77 94% 83 29.81 1009.4 0.3
19 19:53 E 20 G 30 6.00 Fog/Mist FEW015 BKN039 OVC050 81 78.1 91% 89 29.8 1009.3 0.06
19 18:53 NE 23 G 35 0.75 Thunderstorm Heavy Rain Fog/Mist and Breezy FEW008 BKN015 OVC021 81 79 82 78.1 94% 89 29.77 1008.3 0.41 1.96
19 17:53 E 26 G 38 0.75 Light Rain Fog/Mist and Windy BKN021 BKN029 OVC070 80.1 78.1 94% 86 29.78 1008.5 0.19
19 16:53 NE 21 G 32 4.00 Fog/Mist and Breezy FEW007 OVC012 81 79 94% 89 29.78 1008.5 0.23
19 15:53 NE 16 G 25 7.00 Light Rain SCT009 BKN019 OVC043 79 78.1 97% 83 29.77 1008.3 0.06 1.13
19 14:53 NE 16 G 25 2.50 Rain Fog/Mist SCT007 BKN014 OVC026 78.1 77 97% 81 29.8 1009.3 0.45
19 13:53 NE 17 G 25 1.00 Thunderstorm in Vicinity Heavy Rain Fog/Mist FEW005 OVC009 78.1 75.9 93% 81 29.8 1009.4 0.62
19 12:53 NE 17 G 25 0.75 Thunderstorm in Vicinity Heavy Rain Fog/Mist VV010 78.1 77 81 78.1 97% 81 29.81 1009.6 1.04 2.26
19 11:53 E 15 G 24 0.75 Heavy Rain Fog/Mist FEW006 BKN010 OVC016 79 77 94% 83 29.82 1010.0 0.38
19 10:53 NE 17 G 36 1.00 Rain Fog/Mist FEW009 BKN019 OVC033 78.1 75.9 93% 81 29.8 1009.3 0.42
Date Time (cdt) Wind (mph) Vis. (mi.) Weather Sky Cond. Air Dwpt Max. Min. Relative Humidity Wind Chill (°F) Heat Index (°F) altimeter (in) sea level (mb) 1 hr 3 hr 6 hr
6 hour
Temperature (ºF) Pressure Precipitation (in)